Kyiv, Ukraine

10:10 AM EEST on October 15, 2019 (GMT +0300)
Zhuliany

Weather History for UKKK - August, 2019

Change the Weather History Date:

Wednesday, August 21, 2019

  Actual Average (WUND) Record (WUND)
Temperature  
Mean Temperature 74 °F -  
Max Temperature 90 °F - - (-1)
Min Temperature 59 °F - - (-1)
Cooling Degree Days 10    
Growing Degree Days 24 (Base 50)    
Moisture  
Dew Point 56 °F    
Average Humidity 54    
Maximum Humidity 94    
Minimum Humidity 20    
Precipitation  
Precipitation 0.00 in 0.07 in - ()
Sea Level Pressure  
Sea Level Pressure 30.18 in    
Wind  
Wind Speed 2 mph ()    
Max Wind Speed 9 mph    
Max Gust Speed -    
Visibility 9.6 miles    
Events      
Averages and records for this station are not official NWS values.
T = Trace of Precipitation, MM = Missing Value Source: Averaged Metar Reports

Daily Weather History Graph

Daily Weather History Graph

Search for Another Location

Airport or City:

Astronomy

Aug. 21, 2019 Rise Set
Actual Time 5:55 AM EEST 8:06 PM EEST
Civil Twilight 5:19 AM EEST 8:42 PM EEST
Nautical Twilight 4:35 AM EEST 9:26 PM EEST
Astronomical Twilight 3:44 AM EEST 10:16 PM EEST
Moon 10:40 PM EEST (8/21) 11:42 AM EEST (8/21)
Length of Visible Light 15h 22m
Length of Day
14h 11m
Waning Gibbous, 72% of the Moon is Illuminated
Aug 21
Waning Gibbous
Aug 23
Last Quarter
Aug 30
New
Sep 6
First Quarter
Sep 14
Full

Hourly Weather History & Observations

Time (EEST) Temp. Heat Index Dew Point Humidity Pressure Visibility Wind Dir Wind Speed Gust Speed Precip Events Conditions
12:00 AM 66.2 °F - 57.2 °F 73% 30.21 in - Calm Calm - N/A   Clear
12:30 AM 66.2 °F - 55.4 °F 68% 30.21 in - Calm Calm - N/A   Clear
1:30 AM 66.2 °F - 55.4 °F 68% 30.21 in - NE 2.2 mph - N/A   Clear
2:00 AM 64.4 °F - 55.4 °F 73% 30.21 in - Calm Calm - N/A   Clear
2:30 AM 64.4 °F - 55.4 °F 73% 30.21 in - Calm Calm - N/A   Clear
3:00 AM 69 °F - 54 °F 50% 30.20 in 12 mi Calm Calm - -  
3:00 AM 60.8 °F - 57.2 °F 88% 30.21 in - Calm Calm - N/A   Clear
3:30 AM 60.8 °F - 57.2 °F 88% 30.21 in - Calm Calm - N/A   Clear
4:00 AM 60.8 °F - 57.2 °F 88% 30.21 in - Calm Calm - N/A   Clear
4:30 AM 59.0 °F - 55.4 °F 88% 30.21 in - Calm Calm - N/A   Clear
5:00 AM 60.8 °F - 57.2 °F 88% 30.21 in - Calm Calm - N/A   Clear
5:30 AM 60.8 °F - 57.2 °F 88% 30.21 in - Calm Calm - N/A   Clear
6:00 AM 66 °F - 55 °F 60% 30.21 in 12 mi Calm Calm - -  
6:00 AM 59.0 °F - 57.2 °F 94% 30.21 in - ENE 2.2 mph - N/A   Clear
6:30 AM 62.6 °F - 57.2 °F 82% 30.21 in - East 4.5 mph - N/A   Clear
7:00 AM 62.6 °F - 59.0 °F 88% 30.21 in - ENE 2.2 mph - N/A   Clear
7:30 AM 69.8 °F - 60.8 °F 73% 30.21 in - East 4.5 mph - N/A   Clear
8:00 AM 73.4 °F - 59.0 °F 61% 30.21 in - East 4.5 mph - N/A   Clear
8:30 AM 77.0 °F - 57.2 °F 50% 30.21 in - Variable 2.2 mph - N/A   Clear
9:00 AM 77.0 °F - 55.4 °F 47% 30.24 in - South 4.5 mph - N/A   Clear
9:30 AM 78.8 °F - 55.4 °F 44% 30.24 in - SSE 4.5 mph - N/A   Clear
10:00 AM 80.6 °F 80.8 °F 57.2 °F 45% 30.21 in - Variable 2.2 mph - N/A   Clear
10:30 AM 82.4 °F 82.0 °F 57.2 °F 42% 30.21 in - SSE 4.5 mph - N/A   Clear
11:00 AM 82.4 °F 82.0 °F 57.2 °F 42% 30.21 in - Variable 2.2 mph - N/A   Clear
11:30 AM 84.2 °F 83.0 °F 55.4 °F 37% 30.21 in - East 6.7 mph - N/A   Clear
12:00 PM 85 °F - 54 °F 24% 30.18 in 12 mi South 4.5 mph - -  
12:00 PM 84.2 °F 83.0 °F 55.4 °F 37% 30.21 in - East 6.7 mph - N/A   Clear
12:30 PM 84.2 °F - 51.8 °F 33% 30.18 in - SE 6.7 mph - N/A   Clear
1:00 PM 86.0 °F 84.2 °F 53.6 °F 33% 30.18 in - ESE 8.9 mph - N/A   Clear
1:30 PM 86.0 °F - 51.8 °F 31% 30.18 in - ESE 4.5 mph - N/A   Clear
2:00 PM 86.0 °F - 51.8 °F 31% 30.18 in - SE 6.7 mph - N/A   Clear
2:30 PM 87.8 °F - 51.8 °F 29% 30.15 in - SE 4.5 mph - N/A   Clear
3:00 PM 89 °F - 53 °F 20% 30.13 in 12 mi SE 2.2 mph - -   Clear
3:00 PM 87.8 °F - 51.8 °F 29% 30.15 in - SE 4.5 mph - N/A   Clear
3:30 PM 87.8 °F 85.7 °F 53.6 °F 31% 30.15 in - ESE 6.7 mph - N/A   Clear
4:00 PM 87.8 °F - 51.8 °F 29% 30.15 in - ESE 6.7 mph - N/A   Clear
4:30 PM 87.8 °F - 51.8 °F 29% 30.12 in - ENE 6.7 mph - N/A   Clear
5:00 PM 87.8 °F 86.1 °F 55.4 °F 33% 30.12 in - East 6.7 mph - N/A   Clear
5:30 PM 87.8 °F 86.1 °F 55.4 °F 33% 30.12 in - ESE 4.5 mph - N/A   Clear
6:00 PM 88 °F - 54 °F 21% 30.11 in 12 mi East 4.5 mph - -   Clear
6:00 PM 87.8 °F 86.1 °F 55.4 °F 33% 30.12 in - Variable 2.2 mph - N/A   Clear
6:30 PM 86.0 °F 84.9 °F 57.2 °F 37% 30.12 in - Calm Calm - N/A   Clear
7:00 PM 84.2 °F 83.5 °F 57.2 °F 40% 30.12 in - East 4.5 mph - N/A   Clear
7:30 PM 82.4 °F 82.5 °F 59.0 °F 45% 30.12 in - East 4.5 mph - N/A   Clear
8:00 PM 78.8 °F - 59.0 °F 51% 30.12 in - East 4.5 mph - N/A   Clear
8:30 PM 75.2 °F - 59.0 °F 57% 30.12 in - East 4.5 mph - N/A   Clear
9:00 PM 78 °F - 58 °F 40% 30.12 in 12 mi Calm Calm - -  
9:00 PM 73.4 °F - 59.0 °F 61% 30.15 in - East 2.2 mph - N/A   Clear
9:30 PM 73.4 °F - 59.0 °F 61% 30.15 in - East 4.5 mph - N/A   Clear
10:00 PM 68.0 °F - 60.8 °F 78% 30.15 in 6.2 mi East 2.2 mph - N/A   Unknown
10:30 PM 69.8 °F - 59.0 °F 68% 30.15 in 6.2 mi Calm Calm - N/A   Smoke
10:47 PM 68.0 °F - 59.0 °F 73% 30.15 in 5.6 mi Calm Calm - N/A   Smoke
11:30 PM 66.2 °F - 59.0 °F 78% 30.15 in 6.2 mi Calm Calm - N/A   Smoke